This demonstration page uses our WeatherBlox Daily Observations layout. Learn more.

Left ArrowRight Arrow

41.86663, -103.66717

Hourly Observations for March 6, 2015

Temp ( °F °C ) Dew Point ( °F °C ) Humidity (%) Winds ( mph kmh ) Pressure ( in mb ) Visibility ( mi km ) Precip ( " mm )
12:53 am 00:53 Clear 28 -2.2 20 -6.7 72 72 NNW 3 6 30.26 1025 10 16 0.00 0.00
1:53 am 01:53 Mostly Clear 28 -2.2 21 -6.1 75 75 NNW 3 6 30.27 1025 10 16 0.00 0.00
2:53 am 02:53 Cloudy 30 -1.1 22 -5.6 72 72 Calm 30.24 1024 10 16 0.00 0.00
3:53 am 03:53 Mostly Cloudy 30 -1.1 22 -5.6 72 72 WNW 6 9 30.24 1024 10 16 0.00 0.00
4:53 am 04:53 Clear 29 -1.7 21 -6.1 72 72 WNW 7 11 30.26 1025 10 16 0.00 0.00
5:53 am 05:53 Clear 25 -3.9 19 -7.2 78 78 N 5 7 30.29 1026 10 16 0.00 0.00
6:53 am 06:53 Sunny 26 -3.3 20 -6.7 78 78 NW 6 9 30.32 1027 10 16 0.00 0.00
7:53 am 07:53 Sunny 36 2.2 23 -5 59 59 WNW 8 13 30.31 1027 10 16 0.00 0.00
8:53 am 08:53 Sunny 42 5.6 22 -5.6 45 45 WNW 14 22 30.31 1027 10 16 0.00 0.00
9:53 am 09:53 Sunny 49 9.4 22 -5.6 35 35 WNW 12 19 30.29 1026 10 16 0.00 0.00
10:53 am 10:53 Sunny 53 11.7 20 -6.7 27 27 W 16 26 30.27 1025 10 16 0.00 0.00
11:53 am 11:53 Sunny 55 12.8 17 -8.3 22 22 WNW 12 19 30.26 1025 10 16 0.00 0.00
12:53 pm 12:53 Sunny 57 14 16 -9 20 20 W 18 30 30.09 1019 10 16 0.00 0.00
1:53 pm 13:53 Sunny 56 13.3 16 -8.9 21 21 WNW 18 30 30.21 1023 10 16 0.00 0.00
2:53 pm 14:53 Sunny 57 13.9 17 -8.3 21 21 W 20 31 30.19 1022 10 16 0.00 0.00
3:53 pm 15:53 Sunny 55 12.8 16 -8.9 21 21 W 18 30 30.20 1023 10 16 0.00 0.00
4:53 pm 16:53 Sunny 53 11.7 18 -7.8 25 25 W 15 24 30.21 1023 10 16 0.00 0.00
5:53 pm 17:53 Clear 47 8.3 20 -6.7 34 34 W 14 22 30.24 1024 10 16 0.00 0.00
6:53 pm 18:53 Clear 40 4.4 22 -5.6 49 49 W 9 15 30.27 1025 10 16 0.00 0.00
7:53 pm 19:53 Clear 35 1.7 20 -6.7 54 54 NW 3 6 30.27 1025 10 16 0.00 0.00
8:53 pm 20:53 Clear 32 0 20 -6.7 61 61 WNW 3 6 30.29 1026 10 16 0.00 0.00
9:53 pm 21:53 Clear 30 -1.1 20 -6.7 66 66 NW 3 6 30.29 1026 10 16 0.00 0.00
10:53 pm 22:53 Clear 28 -2.2 20 -6.7 72 72 N 3 6 30.28 1025 10 16 0.00 0.00
11:53 pm 23:53 Clear 28 -2.2 21 -6.1 75 75 NNW 7 11 30.28 1025 10 16 0.00 0.00

Powered by AerisWeather